DELTA 1 DEB, 42581

Orbit data source: Space-Track

DELTA 1 DEB, 42581 is space debris in LEO originally from a launch on Tue, 06 Nov 1973 UTC launched from the Air Force Western Test Range (AFWTR). Debris objects in space refer to the collection of defunct objects orbiting the Earth. Examples of debris include non-operational satellites, rocket bodies, and fragments generated from explosions, collisions, or faulty payload assembly.

Loading next visibility...
DELTA 1 DEB details
Identifier
42581, 1973-086HV
Orbit
LEO
Last TLE update1 month ago
Origin
Flag of USGSFC (US)
ManufacturerUnknown
MissionSpacecraft
Bus & MotorUnknown
MassUnknown
Launch date (UTC)
1973-11-06 (51 years ago)
Launch vehicleUnknown
Launch site
Air Force Western Test Range (AFWTR)
Object type
Payload
Rocket body
Debris
Shape & HBRUnknown
Radar Cross SectionSmall (<0.1 m²)

Expand to show TLE details & history

TLE from 1 month ago
0 DELTA 1 DEB
1 42581U 73086HV  24315.44155633  .00001530  00000-0  79954-2 0  9995
2 42581 102.1725 185.5476 0065051 129.0784 231.6106 12.68972425145829
Epoch: 2024-11-10T10:35Z
Definitive object data (Epoch: 2024-11-10T10:35:50.466Z)
Latitude-0.00003°
Longitude-23.49379°
Altitude1,420.281 km
Speed7.136 km/s
True Right ascension12h 22m 11s
True Declination0° 00' 00"
Sunlit
Object was in daylight at TLE epoch
Visualization TLE readout
Latitude-56.18903°
Longitude28.35491°
Altitude1,436.668 km
Speed7.129 km/s
Apparent Right ascension11h 18m 15s
Apparent Declination-67° 14' 27"
Sunlit
Object is in daylight
Visualization observer readout
Local Sidereal Time19:36:27
Azimuth209.356° SW
Elevation-49.462°
Doppler factor1
Orbital elements
Apogee altitude1,434.167 km
Perigee altitude1,333.185 km
Semi-major axis7,761.813 km
Eccentricity0.0065051
Inclination102.1725°
RAAN185.5476°
Arg. of periapsis129.0784°
True anomaly231.02927°
Mean anomaly231.6106°
Eccentric anomaly231.31964°
Mean motion3.17394 °/min
BSTAR0.0079954
Orbital period113.42 mins
Loading maneuver chart data...
Loading historical data...
Loading historical data...
Loading historical data...
Loading historical data...
Loading historical data...
Loading historical data...
Loading historical data...

DELTA 1 DEB Visibility forecast

Observer location: undefined°, undefined

Span
Click to sort rows by Start time (UTC) header in descending order
Start Az.
Max El. time (UTC)
Max El. Az.
Max El.
End time (UTC)
End Az.
14 mins2024-12-12 03:48:38.485Z32.857° NE2024-12-12 03:55:38.485Z98.189° ESE33.116°2024-12-12 04:02:38.485Z166.78° S
12 mins2024-12-12 05:41:38.485Z359.257° N2024-12-12 05:46:38.485Z306.629° NW34.38°2024-12-12 05:53:38.485Z232.604° WSW
14 mins2024-12-12 14:39:38.485Z134.41° SE2024-12-12 14:46:38.485Z58.599° ENE37.528°2024-12-12 14:53:38.485Z352.398° N
12 mins2024-12-12 16:32:38.485Z206.349° SW2024-12-12 16:37:38.485Z256.754° W28.981°2024-12-12 16:44:38.485Z323.137° NNW
|